Total_Precipitation_Accumulation
0.00 0.00 0.00 0.00 0.00 0.00 0.00 0.00 0.00 0.00 0.00 0.00 0.00 0.00 0.00 0.00 0.00 0.00 0.00 0.00 0.00 0.00 0.00 0.00 0.00 0.00 0.00 0.00 0.00 0.00 0.00 0.00 0.00 0.00 0.00 0.00 0.00 0.00 0.00 0.01 0.00 0.00 0.01 0.02 0.01 0.01 0.01 0.02 0.01 0.02 0.02 0.02 0.05 0.02 0.01 0.07 0.04 0.05 0.08 0.06 0.01 0.01 0.02 0.07 0.05 0.07 0.04 0.03 0.01 0.02 0.05 0.11 0.10 0.08 0.07 0.07 0.08 0.06 0.08 0.06 0.22 0.30 0.44 0.95 1.59 0.84
0.00 0.00 0.00 0.00 0.00 0.00 0.00 0.00 0.00 0.00 0.00 0.00 0.00 0.00 0.00 0.00 0.00 0.00 0.00 0.00 0.00 0.00 0.00 0.00 0.00 0.00 0.00 0.00 0.00 0.00 0.00 0.00 0.00 0.00 0.00 0.00 0.00 0.00 0.00 0.00 0.00 0.00 0.02 0.01 0.00 0.02 0.04 0.01 0.01 0.01 0.02 0.02 0.03 0.01 0.01 0.02 0.03 0.02 0.02 0.04 0.06 0.05 0.02 0.03 0.07 0.19 0.12 0.03 0.03 0.06 0.10 0.04 0.04 0.06 0.05 0.04 0.02 0.05 0.08 0.08 0.25 0.14 0.37 0.52 0.41 0.25
0.00 0.00 0.00 0.00 0.00 0.00 0.00 0.00 0.00 0.00 0.00 0.00 0.00 0.00 0.00 0.00 0.00 0.00 0.00 0.00 0.00 0.00 0.00 0.00 0.00 0.00 0.01 0.00 0.00 0.00 0.00 0.00 0.00 0.00 0.00 0.00 0.00 0.00 0.00 0.00 0.00 0.00 0.00 0.00 0.01 0.01 0.00 0.00 0.01 0.02 0.00 0.01 0.00 0.00 0.00 0.01 0.02 0.02 0.02 0.05 0.03 0.10 0.09 0.06 0.16 0.08 0.05 0.07 0.04 0.07 0.05 0.03 0.01 0.01 0.01 0.01 0.02 0.02 0.06 0.05 0.39 0.20 0.17 0.16 0.13 0.13
0.00 0.00 0.00 0.00 0.00 0.00 0.00 0.00 0.00 0.00 0.00 0.00 0.00 0.00 0.00 0.00 0.00 0.01 0.00 0.00 0.00 0.00 0.00 0.00 0.00 0.00 0.01 0.00 0.00 0.00 0.00 0.00 0.00 0.00 0.00 0.00 0.00 0.00 0.00 0.00 0.00 0.00 0.00 0.00 0.00 0.00 0.00 0.01 0.00 0.00 0.00 0.00 0.00 0.00 0.00 0.00 0.00 0.00 0.00 0.01 0.02 0.06 0.12 0.08 0.05 0.11 0.12 0.09 0.10 0.01 0.01 0.01 0.00 0.01 0.01 0.00 0.01 0.02 0.06 0.15 0.41 0.34 0.17 0.36 0.20 0.13
0.00 0.00 0.00 0.00 0.00 0.00 0.00 0.00 0.00 0.00 0.00 0.00 0.00 0.00 0.00 0.00 0.00 0.00 0.00 0.00 0.00 0.00 0.00 0.00 0.00 0.04 0.03 0.00 0.00 0.00 0.00 0.00 0.00 0.00 0.00 0.00 0.00 0.00 0.00 0.00 0.00 0.00 0.00 0.00 0.01 0.01 0.00 0.00 0.00 0.00 0.00 0.00 0.00 0.00 0.00 0.00 0.00 0.00 0.00 0.00 0.01 0.01 0.01 0.03 0.02 0.02 0.01 0.01 0.02 0.02 0.02 0.01 0.02 0.00 0.01 0.01 0.01 0.01 0.02 0.04 0.06 0.07 0.07 0.10 0.11 0.11
0.00 0.00 0.00 0.00 0.00 0.00 0.00 0.00 0.00 0.00 0.00 0.00 0.00 0.00 0.00 0.00 0.00 0.00 0.00 0.00 0.00 0.00 0.00 0.00 0.04 0.05 0.04 0.04 0.00 0.00 0.01 0.00 0.00 0.00 0.00 0.00 0.00 0.00 0.00 0.00 0.00 0.00 0.00 0.00 0.00 0.00 0.00 0.00 0.00 0.00 0.00 0.00 0.00 0.00 0.00 0.00 0.00 0.00 0.00 0.01 0.00 0.01 0.01 0.00 0.00 0.00 0.01 0.00 0.00 0.02 0.04 0.02 0.01 0.01 0.01 0.00 0.00 0.01 0.01 0.01 0.02 0.02 0.03 0.03 0.03 0.04
0.00 0.00 0.00 0.00 0.00 0.00 0.00 0.00 0.00 0.00 0.00 0.00 0.00 0.00 0.00 0.00 0.00 0.00 0.00 0.00 0.01 0.02 0.00 0.00 0.03 0.05 0.06 0.31 0.14 0.04 0.01 0.01 0.01 0.00 0.00 0.00 0.00 0.00 0.00 0.00 0.00 0.00 0.00 0.00 0.00 0.00 0.00 0.00 0.00 0.00 0.00 0.00 0.00 0.00 0.00 0.00 0.00 0.00 0.00 0.00 0.00 0.00 0.00 0.00 0.00 0.00 0.00 0.00 0.00 0.00 0.01 0.00 0.01 0.00 0.00 0.00 0.00 0.00 0.00 0.01 0.01 0.01 0.01 0.01 0.01 0.01
0.00 0.00 0.00 0.00 0.00 0.00 0.00 0.00 0.00 0.00 0.00 0.00 0.00 0.00 0.00 0.00 0.00 0.00 0.00 0.00 0.01 0.00 0.00 0.00 0.00 0.07 0.04 0.01 0.01 0.00 0.03 0.01 0.02 0.00 0.00 0.00 0.00 0.00 0.00 0.00 0.00 0.00 0.00 0.00 0.00 0.00 0.00 0.00 0.00 0.00 0.00 0.00 0.00 0.00 0.00 0.00 0.00 0.00 0.00 0.00 0.00 0.00 0.00 0.00 0.00 0.00 0.00 0.00 0.00 0.00 0.00 0.00 0.00 0.00 0.00 0.00 0.00 0.00 0.00 0.00 0.00 0.00 0.00 0.01 0.01 0.02
0.00 0.00 0.00 0.00 0.00 0.00 0.00 0.00 0.00 0.00 0.00 0.00 0.00 0.00 0.00 0.00 0.00 0.00 0.00 0.00 0.00 0.01 0.06 0.00 0.00 0.04 0.01 0.01 0.00 0.01 0.02 0.00 0.00 0.01 0.00 0.00 0.00 0.00 0.00 0.00 0.00 0.00 0.00 0.00 0.00 0.00 0.00 0.00 0.00 0.01 0.00 0.00 0.00 0.00 0.00 0.00 0.00 0.00 0.00 0.00 0.00 0.00 0.00 0.00 0.00 0.00 0.00 0.00 0.00 0.00 0.01 0.00 0.00 0.00 0.00 0.00 0.00 0.01 0.01 0.00 0.00 0.00 0.00 0.00 0.00 0.01
0.00 0.00 0.00 0.00 0.00 0.00 0.00 0.00 0.00 0.00 0.00 0.00 0.00 0.00 0.00 0.00 0.00 0.00 0.00 0.00 0.00 0.00 0.02 0.00 0.01 0.05 0.02 0.00 0.00 0.00 0.00 0.01 0.00 0.00 0.01 0.00 0.00 0.00 0.01 0.01 0.00 0.00 0.00 0.00 0.00 0.00 0.00 0.00 0.00 0.00 0.00 0.00 0.00 0.00 0.00 0.00 0.00 0.00 0.00 0.00 0.00 0.00 0.00 0.00 0.00 0.00 0.00 0.00 0.00 0.00 0.00 0.00 0.00 0.00 0.00 0.00 0.00 0.00 0.00 0.00 0.00 0.00 0.00 0.00 0.01 0.01
0.00 0.00 0.00 0.00 0.00 0.00 0.00 0.00 0.00 0.00 0.00 0.00 0.00 0.00 0.00 0.00 0.00 0.00 0.00 0.00 0.00 0.00 0.00 0.00 0.01 0.00 0.02 0.01 0.01 0.00 0.00 0.00 0.04 0.01 0.00 0.01 0.01 0.01 0.01 0.01 0.01 0.00 0.00 0.00 0.00 0.00 0.00 0.00 0.00 0.00 0.00 0.00 0.00 0.00 0.00 0.00 0.00 0.00 0.00 0.00 0.00 0.00 0.00 0.00 0.00 0.00 0.00 0.00 0.00 0.00 0.00 0.00 0.00 0.00 0.00 0.00 0.00 0.00 0.00 0.00 0.00 0.01 0.00 0.00 0.01 0.00
0.00 0.00 0.00 0.00 0.00 0.00 0.00 0.00 0.00 0.00 0.00 0.00 0.00 0.00 0.00 0.00 0.00 0.00 0.00 0.00 0.00 0.00 0.00 0.00 0.01 0.00 0.02 0.00 0.00 0.00 0.00 0.00 0.00 0.00 0.00 0.00 0.00 0.00 0.01 0.02 0.00 0.00 0.01 0.00 0.01 0.00 0.01 0.00 0.00 0.01 0.00 0.00 0.00 0.00 0.00 0.00 0.00 0.00 0.00 0.00 0.00 0.00 0.00 0.00 0.00 0.00 0.00 0.00 0.00 0.00 0.00 0.00 0.00 0.00 0.00 0.00 0.00 0.00 0.00 0.00 0.00 0.00 0.01 0.00 0.00 0.00
0.00 0.00 0.00 0.00 0.00 0.00 0.00 0.00 0.00 0.00 0.00 0.00 0.00 0.00 0.00 0.00 0.00 0.00 0.00 0.00 0.00 0.00 0.01 0.00 0.00 0.00 0.01 0.00 0.00 0.00 0.00 0.00 0.00 0.00 0.00 0.00 0.00 0.00 0.01 0.00 0.02 0.00 0.01 0.01 0.00 0.01 0.02 0.00 0.01 0.00 0.00 0.00 0.00 0.00 0.00 0.00 0.00 0.00 0.00 0.00 0.00 0.00 0.00 0.00 0.00 0.00 0.00 0.00 0.00 0.00 0.00 0.00 0.00 0.00 0.00 0.00 0.00 0.00 0.00 0.00 0.00 0.00 0.00 0.00 0.00 0.00
0.00 0.00 0.00 0.00 0.00 0.00 0.00 0.00 0.00 0.00 0.00 0.00 0.00 0.00 0.00 0.00 0.00 0.00 0.00 0.00 0.00 0.00 0.00 0.00 0.00 0.00 0.00 0.01 0.00 0.00 0.00 0.00 0.00 0.00 0.00 0.00 0.00 0.00 0.00 0.00 0.00 0.00 0.00 0.01 0.01 0.01 0.00 0.00 0.01 0.00 0.00 0.00 0.00 0.00 0.00 0.00 0.00 0.00 0.00 0.00 0.00 0.00 0.00 0.00 0.00 0.00 0.00 0.00 0.00 0.00 0.00 0.00 0.00 0.00 0.00 0.00 0.00 0.00 0.00 0.00 0.00 0.00 0.00 0.00 0.00 0.00
0.00 0.00 0.00 0.00 0.00 0.00 0.00 0.00 0.00 0.00 0.00 0.00 0.00 0.00 0.00 0.00 0.00 0.00 0.00 0.00 0.00 0.00 0.00 0.00 0.00 0.00 0.00 0.00 0.00 0.00 0.00 0.00 0.00 0.00 0.00 0.00 0.00 0.02 0.00 0.00 0.00 0.00 0.00 0.01 0.00 0.00 0.00 0.00 0.02 0.00 0.00 0.00 0.00 0.00 0.00 0.00 0.00 0.00 0.00 0.00 0.00 0.00 0.00 0.00 0.00 0.00 0.00 0.00 0.00 0.00 0.00 0.00 0.00 0.00 0.00 0.00 0.00 0.00 0.00 0.00 0.00 0.01 0.01 0.00 0.01 0.00
0.00 0.00 0.00 0.00 0.00 0.00 0.00 0.00 0.00 0.00 0.00 0.00 0.00 0.00 0.00 0.00 0.00 0.00 0.00 0.00 0.00 0.00 0.00 0.00 0.00 0.00 0.00 0.00 0.00 0.00 0.00 0.00 0.00 0.00 0.00 0.00 0.00 0.00 0.02 0.00 0.00 0.00 0.00 0.00 0.00 0.00 0.00 0.00 0.02 0.00 0.00 0.00 0.00 0.00 0.00 0.00 0.00 0.00 0.00 0.00 0.00 0.00 0.00 0.00 0.00 0.00 0.00 0.00 0.00 0.00 0.00 0.00 0.00 0.00 0.00 0.00 0.00 0.00 0.00 0.00 0.00 0.00 0.01 0.01 0.01 0.01
0.00 0.00 0.00 0.00 0.00 0.00 0.00 0.00 0.00 0.00 0.00 0.00 0.00 0.00 0.00 0.00 0.00 0.00 0.00 0.00 0.00 0.00 0.00 0.00 0.00 0.00 0.00 0.00 0.00 0.00 0.00 0.00 0.00 0.00 0.00 0.00 0.00 0.00 0.00 0.00 0.00 0.00 0.00 0.00 0.00 0.00 0.00 0.01 0.00 0.00 0.03 0.00 0.00 0.00 0.00 0.00 0.00 0.00 0.00 0.00 0.00 0.00 0.00 0.00 0.00 0.00 0.00 0.00 0.00 0.00 0.00 0.00 0.00 0.00 0.00 0.00 0.00 0.00 0.00 0.00 0.00 0.01 0.01 0.00 0.01 0.01
0.00 0.00 0.00 0.00 0.00 0.00 0.00 0.00 0.00 0.00 0.00 0.00 0.00 0.00 0.00 0.00 0.00 0.00 0.00 0.00 0.00 0.00 0.00 0.00 0.00 0.01 0.00 0.00 0.00 0.00 0.00 0.00 0.00 0.00 0.00 0.00 0.00 0.00 0.00 0.00 0.01 0.00 0.00 0.00 0.00 0.00 0.00 0.01 0.00 0.01 0.03 0.00 0.00 0.00 0.00 0.00 0.00 0.00 0.00 0.00 0.00 0.00 0.00 0.00 0.00 0.00 0.00 0.00 0.00 0.00 0.00 0.00 0.00 0.00 0.00 0.00 0.00 0.00 0.00 0.00 0.00 0.00 0.01 0.01 0.00 0.00
0.00 0.00 0.00 0.00 0.00 0.00 0.00 0.00 0.00 0.00 0.00 0.00 0.00 0.00 0.00 0.00 0.00 0.00 0.00 0.00 0.00 0.00 0.00 0.00 0.00 0.00 0.00 0.00 0.00 0.00 0.00 0.00 0.00 0.00 0.00 0.00 0.00 0.00 0.00 0.00 0.00 0.00 0.00 0.00 0.00 0.00 0.00 0.00 0.00 0.00 0.03 0.01 0.00 0.00 0.00 0.00 0.00 0.00 0.00 0.00 0.00 0.00 0.00 0.00 0.00 0.00 0.00 0.00 0.00 0.00 0.00 0.00 0.00 0.00 0.00 0.00 0.00 0.00 0.00 0.00 0.00 0.00 0.00 0.00 0.01 0.00
0.00 0.00 0.00 0.00 0.00 0.00 0.00 0.00 0.00 0.00 0.00 0.00 0.00 0.00 0.00 0.00 0.00 0.00 0.00 0.00 0.00 0.00 0.00 0.00 0.00 0.00 0.00 0.00 0.00 0.00 0.00 0.00 0.00 0.00 0.00 0.00 0.00 0.00 0.00 0.00 0.00 0.00 0.00 0.01 0.01 0.01 0.01 0.01 0.04 0.07 0.04 0.02 0.00 0.00 0.00 0.00 0.00 0.00 0.00 0.00 0.00 0.00 0.00 0.00 0.00 0.00 0.00 0.00 0.00 0.00 0.00 0.00 0.00 0.00 0.00 0.00 0.00 0.00 0.00 0.00 0.00 0.00 0.00 0.01 0.00 0.00
0.00 0.00 0.00 0.00 0.00 0.00 0.00 0.00 0.00 0.00 0.00 0.00 0.00 0.00 0.00 0.00 0.00 0.00 0.00 0.00 0.00 0.00 0.00 0.00 0.00 0.00 0.00 0.00 0.00 0.00 0.00 0.00 0.00 0.00 0.00 0.00 0.00 0.00 0.00 0.00 0.00 0.00 0.00 0.00 0.00 0.00 0.00 0.01 0.04 0.02 0.03 0.02 0.02 0.00 0.00 0.00 0.00 0.00 0.00 0.00 0.00 0.00 0.00 0.00 0.00 0.00 0.00 0.00 0.00 0.00 0.00 0.00 0.00 0.00 0.00 0.00 0.00 0.00 0.00 0.00 0.00 0.00 0.00 0.00 0.03 0.01
0.00 0.00 0.00 0.00 0.00 0.00 0.00 0.00 0.00 0.00 0.00 0.00 0.00 0.00 0.00 0.00 0.00 0.00 0.00 0.00 0.00 0.00 0.00 0.00 0.00 0.00 0.00 0.00 0.00 0.00 0.00 0.00 0.00 0.00 0.00 0.00 0.00 0.00 0.00 0.00 0.00 0.00 0.00 0.00 0.01 0.03 0.02 0.03 0.00 0.00 0.00 0.00 0.00 0.00 0.00 0.00 0.00 0.00 0.00 0.00 0.00 0.00 0.00 0.00 0.00 0.00 0.00 0.00 0.00 0.00 0.00 0.00 0.00 0.00 0.00 0.00 0.00 0.00 0.00 0.00 0.00 0.00 0.00 0.00 0.00 0.01
0.00 0.00 0.00 0.00 0.00 0.00 0.00 0.00 0.00 0.00 0.00 0.00 0.00 0.00 0.00 0.00 0.00 0.00 0.00 0.00 0.00 0.00 0.00 0.00 0.00 0.00 0.00 0.00 0.00 0.00 0.00 0.00 0.00 0.00 0.00 0.00 0.00 0.00 0.00 0.00 0.00 0.00 0.00 0.00 0.00 0.01 0.04 0.03 0.00 0.00 0.00 0.00 0.00 0.00 0.00 0.00 0.00 0.00 0.00 0.00 0.00 0.00 0.00 0.00 0.00 0.00 0.00 0.03 0.06 0.01 0.01 0.00 0.00 0.00 0.00 0.00 0.00 0.00 0.00 0.00 0.00 0.00 0.00 0.00 0.00 0.00
0.00 0.00 0.00 0.00 0.00 0.00 0.00 0.00 0.00 0.00 0.00 0.00 0.00 0.00 0.00 0.00 0.00 0.00 0.00 0.00 0.00 0.01 0.00 0.00 0.00 0.00 0.00 0.00 0.00 0.00 0.00 0.00 0.00 0.00 0.00 0.00 0.00 0.00 0.00 0.00 0.00 0.00 0.00 0.00 0.00 0.01 0.00 0.01 0.05 0.00 0.00 0.00 0.00 0.00 0.00 0.00 0.00 0.00 0.00 0.00 0.00 0.00 0.02 0.00 0.00 0.00 0.03 0.03 0.01 0.00 0.00 0.00 0.01 0.00 0.00 0.00 0.01 0.00 0.00 0.00 0.00 0.00 0.00 0.00 0.01 0.01
0.00 0.00 0.00 0.00 0.00 0.00 0.00 0.00 0.00 0.00 0.00 0.00 0.00 0.00 0.00 0.00 0.00 0.00 0.00 0.00 0.00 0.00 0.00 0.00 0.00 0.00 0.00 0.00 0.00 0.00 0.00 0.00 0.00 0.00 0.00 0.00 0.00 0.00 0.00 0.00 0.00 0.00 0.00 0.00 0.00 0.00 0.00 0.00 0.00 0.00 0.00 0.00 0.00 0.00 0.00 0.00 0.00 0.00 0.00 0.00 0.00 0.00 0.03 0.01 0.01 0.03 0.11 0.05 0.00 0.00 0.00 0.01 0.02 0.02 0.05 0.03 0.01 0.00 0.00 0.00 0.00 0.00 0.01 0.00 0.00 0.01
0.00 0.00 0.00 0.00 0.00 0.00 0.00 0.00 0.00 0.00 0.00 0.00 0.00 0.00 0.00 0.00 0.00 0.00 0.00 0.00 0.00 0.00 0.00 0.01 0.01 0.00 0.00 0.00 0.00 0.00 0.00 0.00 0.00 0.00 0.00 0.00 0.00 0.00 0.00 0.00 0.00 0.00 0.00 0.00 0.00 0.00 0.00 0.00 0.00 0.00 0.00 0.00 0.00 0.00 0.00 0.00 0.00 0.00 0.00 0.00 0.00 0.00 0.01 0.01 0.01 0.19 0.11 0.16 0.08 0.00 0.01 0.05 0.02 0.06 0.08 0.07 0.01 0.01 0.00 0.00 0.00 0.00 0.00 0.03 0.02 0.02
0.00 0.00 0.00 0.00 0.00 0.00 0.00 0.00 0.00 0.00 0.00 0.00 0.00 0.00 0.00 0.00 0.00 0.00 0.00 0.00 0.00 0.00 0.00 0.00 0.00 0.00 0.00 0.00 0.00 0.00 0.00 0.00 0.00 0.00 0.00 0.00 0.00 0.00 0.00 0.00 0.00 0.00 0.00 0.03 0.00 0.00 0.00 0.00 0.00 0.00 0.00 0.00 0.00 0.00 0.00 0.00 0.00 0.00 0.00 0.00 0.00 0.00 0.00 0.02 0.10 0.25 0.37 0.03 0.01 0.01 0.09 0.15 0.07 0.06 0.20 0.11 0.16 0.03 0.03 0.05 0.04 0.04 0.02 0.01 0.00 0.00
0.00 0.00 0.00 0.00 0.00 0.00 0.00 0.00 0.00 0.00 0.00 0.00 0.00 0.00 0.00 0.00 0.00 0.00 0.00 0.00 0.00 0.00 0.00 0.00 0.00 0.00 0.00 0.00 0.00 0.00 0.00 0.00 0.00 0.00 0.00 0.00 0.00 0.00 0.00 0.00 0.00 0.00 0.01 0.00 0.02 0.03 0.00 0.00 0.00 0.00 0.00 0.00 0.00 0.00 0.00 0.00 0.00 0.00 0.00 0.00 0.00 0.00 0.00 0.04 0.22 0.76 0.46 0.09 0.15 0.39 0.16 0.30 0.09 0.53 0.18 0.19 0.07 0.02 0.08 0.04 0.02 0.02 0.02 0.00 0.00 0.00
0.01 0.00 0.00 0.00 0.00 0.00 0.00 0.00 0.00 0.00 0.00 0.00 0.00 0.00 0.00 0.00 0.00 0.00 0.00 0.00 0.00 0.00 0.00 0.02 0.00 0.00 0.00 0.00 0.00 0.00 0.00 0.00 0.00 0.00 0.00 0.00 0.00 0.00 0.00 0.00 0.00 0.00 0.00 0.00 0.03 0.04 0.04 0.00 0.00 0.00 0.00 0.00 0.00 0.00 0.00 0.00 0.00 0.00 0.00 0.01 0.02 0.02 0.01 0.12 0.51 0.33 0.10 0.20 0.50 0.17 0.44 0.67 0.33 0.45 0.19 0.06 0.02 0.04 0.05 0.02 0.02 0.04 0.05 0.03 0.05 0.04
0.01 0.00 0.00 0.00 0.00 0.00 0.00 0.00 0.00 0.00 0.00 0.00 0.00 0.00 0.00 0.00 0.00 0.00 0.00 0.00 0.00 0.00 0.00 0.00 0.00 0.00 0.00 0.00 0.00 0.00 0.00 0.00 0.00 0.00 0.00 0.00 0.00 0.00 0.00 0.00 0.00 0.01 0.00 0.00 0.01 0.02 0.02 0.00 0.00 0.00 0.00 0.00 0.00 0.00 0.00 0.00 0.01 0.04 0.04 0.01 0.05 0.21 0.35 0.27 0.24 0.16 0.43 0.41 0.24 0.15 0.83 0.52 0.50 0.20 0.15 0.14 0.05 0.11 0.13 0.09 0.16 0.11 0.08 0.09 0.11 0.04
0.00 0.01 0.00 0.00 0.00 0.00 0.00 0.00 0.00 0.00 0.00 0.00 0.00 0.00 0.00 0.00 0.00 0.00 0.00 0.00 0.00 0.00 0.00 0.00 0.00 0.00 0.00 0.00 0.00 0.00 0.00 0.00 0.00 0.00 0.00 0.00 0.00 0.00 0.00 0.00 0.00 0.00 0.00 0.00 0.01 0.02 0.04 0.03 0.00 0.00 0.00 0.00 0.00 0.00 0.00 0.00 0.03 0.02 0.10 0.40 0.55 0.51 0.47 0.15 0.07 0.02 0.01 0.01 0.08 0.57 0.97 0.81 0.30 0.10 0.31 0.18 0.18 0.39 0.35 0.33 0.23 0.22 0.08 0.04 0.05 0.05
0.00 0.03 0.00 0.00 0.00 0.00 0.00 0.00 0.00 0.00 0.00 0.00 0.00 0.00 0.00 0.00 0.00 0.00 0.00 0.00 0.00 0.00 0.00 0.00 0.00 0.01 0.00 0.00 0.00 0.00 0.00 0.00 0.00 0.00 0.00 0.00 0.00 0.00 0.00 0.00 0.00 0.00 0.00 0.00 0.00 0.00 0.02 0.01 0.01 0.00 0.00 0.00 0.00 0.00 0.00 0.01 0.01 0.07 0.39 0.21 0.13 0.28 0.20 0.05 0.02 0.03 0.02 0.07 0.43 1.30 1.13 0.46 0.19 0.32 0.47 0.47 0.72 0.76 0.33 0.14 0.22 0.12 0.07 0.04 0.04 0.03
0.00 0.00 0.00 0.01 0.01 0.01 0.01 0.00 0.01 0.00 0.01 0.01 0.01 0.00 0.00 0.00 0.00 0.00 0.00 0.00 0.00 0.00 0.00 0.00 0.00 0.00 0.00 0.00 0.00 0.00 0.00 0.00 0.00 0.00 0.00 0.00 0.00 0.00 0.00 0.00 0.00 0.00 0.00 0.00 0.00 0.00 0.00 0.00 0.01 0.00 0.00 0.00 0.00 0.00 0.00 0.00 0.14 0.41 0.17 0.27 0.44 0.37 0.26 0.13 0.06 0.05 0.06 0.24 0.97 1.34 0.64 0.24 0.58 0.95 0.85 0.88 0.82 0.59 0.08 0.03 0.02 0.03 0.03 0.03 0.01 0.01
0.00 0.01 0.00 0.00 0.02 0.01 0.01 0.00 0.03 0.06 0.06 0.01 0.01 0.00 0.00 0.00 0.00 0.00 0.00 0.00 0.00 0.00 0.00 0.00 0.00 0.00 0.00 0.00 0.00 0.00 0.00 0.00 0.00 0.00 0.00 0.00 0.00 0.00 0.00 0.00 0.00 0.00 0.00 0.00 0.00 0.00 0.00 0.00 0.00 0.00 0.02 0.01 0.23 0.45 0.03 0.05 0.07 0.10 0.47 0.56 0.28 0.31 0.42 0.35 0.09 0.10 0.50 0.94 0.83 0.57 0.15 0.20 0.54 0.75 0.70 0.65 0.75 0.16 0.09 0.04 0.04 0.04 0.03 0.06 0.05 0.01
0.00 0.01 0.02 0.00 0.03 0.02 0.01 0.00 0.05 0.13 0.01 0.00 0.00 0.00 0.00 0.00 0.00 0.00 0.00 0.00 0.00 0.00 0.00 0.00 0.00 0.00 0.00 0.00 0.00 0.00 0.00 0.00 0.00 0.00 0.00 0.00 0.00 0.00 0.00 0.00 0.00 0.00 0.00 0.00 0.00 0.00 0.00 0.00 0.00 0.00 0.01 0.13 0.22 0.02 0.01 0.00 0.00 0.17 0.64 0.35 0.43 0.52 0.19 0.06 0.42 0.72 0.79 0.53 0.62 0.19 0.14 0.45 1.07 1.14 0.88 0.49 0.17 0.15 0.13 0.09 0.07 0.10 0.12 0.10 0.03 0.04
0.04 0.01 0.01 0.01 0.02 0.01 0.03 0.06 0.09 0.00 0.02 0.00 0.00 0.00 0.00 0.00 0.00 0.00 0.00 0.00 0.00 0.00 0.00 0.00 0.00 0.00 0.00 0.00 0.00 0.00 0.00 0.00 0.00 0.00 0.00 0.00 0.00 0.00 0.00 0.00 0.00 0.00 0.00 0.00 0.00 0.00 0.00 0.00 0.00 0.00 0.00 0.01 0.05 0.02 0.00 0.01 0.08 0.54 0.76 0.71 0.43 0.11 0.09 0.21 0.41 0.38 0.26 0.40 0.22 0.35 0.64 0.79 1.02 0.68 0.36 0.13 0.15 0.22 0.08 0.04 0.03 0.04 0.03 0.02 0.02 0.04
0.01 0.04 0.02 0.04 0.00 0.10 0.06 0.03 0.03 0.05 0.01 0.00 0.00 0.00 0.01 0.00 0.00 0.01 0.05 0.01 0.00 0.00 0.00 0.00 0.00 0.00 0.00 0.00 0.00 0.00 0.00 0.00 0.00 0.00 0.00 0.00 0.00 0.00 0.00 0.00 0.00 0.00 0.00 0.00 0.00 0.00 0.00 0.00 0.00 0.00 0.00 0.00 0.00 0.00 0.00 0.01 0.04 0.21 0.30 0.45 0.08 0.22 0.67 0.77 0.49 0.36 0.41 0.24 0.71 0.79 0.97 0.97 0.75 0.92 0.15 0.21 0.11 0.05 0.03 0.04 0.04 0.04 0.03 0.04 0.04 0.03
0.02 0.03 0.03 0.05 0.13 0.00 0.08 0.11 0.05 0.06 0.08 0.03 0.01 0.01 0.00 0.00 0.00 0.00 0.00 0.01 0.00 0.00 0.00 0.00 0.00 0.00 0.00 0.00 0.00 0.00 0.00 0.00 0.00 0.00 0.00 0.00 0.00 0.00 0.00 0.00 0.00 0.00 0.00 0.00 0.00 0.00 0.00 0.00 0.00 0.00 0.00 0.00 0.00 0.00 0.00 0.02 0.23 0.91 1.31 1.33 0.93 0.54 0.50 0.23 0.17 0.17 0.13 0.37 0.34 0.93 1.09 0.92 0.56 0.36 0.33 0.41 0.07 0.04 0.05 0.06 0.03 0.03 0.01 0.02 0.03 0.02
0.05 0.02 0.02 0.01 0.05 0.03 0.04 0.07 0.07 0.06 0.12 0.12 0.04 0.00 0.00 0.00 0.00 0.00 0.00 0.01 0.00 0.00 0.00 0.00 0.01 0.00 0.00 0.00 0.00 0.00 0.00 0.00 0.00 0.00 0.00 0.00 0.00 0.00 0.00 0.00 0.00 0.00 0.00 0.00 0.00 0.00 0.00 0.00 0.00 0.00 0.00 0.00 0.00 0.00 0.00 0.04 0.41 1.13 0.42 0.13 0.01 0.02 0.01 0.02 0.03 0.02 0.03 0.51 1.18 0.72 0.28 0.17 0.17 0.18 0.07 0.06 0.09 0.06 0.03 0.02 0.02 0.01 0.05 0.04 0.07 0.11
0.10 0.05 0.03 0.03 0.03 0.02 0.03 0.03 0.07 0.01 0.09 0.06 0.03 0.00 0.00 0.00 0.00 0.00 0.05 0.03 0.01 0.00 0.00 0.00 0.00 0.00 0.00 0.00 0.00 0.00 0.00 0.00 0.00 0.00 0.00 0.00 0.00 0.00 0.00 0.00 0.00 0.00 0.00 0.00 0.00 0.00 0.00 0.00 0.00 0.00 0.00 0.00 0.00 0.01 0.00 0.03 0.23 0.68 0.10 0.02 0.24 0.10 0.00 0.00 0.02 0.01 0.33 1.04 0.42 0.17 0.07 0.07 0.06 0.03 0.03 0.04 0.04 0.03 0.01 0.05 0.06 0.03 0.05 0.12 0.27 0.08
0.18 0.13 0.05 0.06 0.03 0.02 0.01 0.03 0.01 0.02 0.06 0.00 0.00 0.00 0.00 0.00 0.00 0.03 0.10 0.07 0.00 0.00 0.00 0.00 0.00 0.00 0.00 0.00 0.00 0.00 0.00 0.00 0.00 0.00 0.00 0.00 0.00 0.00 0.00 0.00 0.00 0.00 0.00 0.00 0.00 0.00 0.00 0.00 0.00 0.00 0.00 0.00 0.02 0.00 0.02 0.10 0.09 0.56 0.49 0.15 0.01 0.00 0.00 0.00 0.02 0.23 0.81 0.44 0.19 0.09 0.04 0.06 0.05 0.02 0.01 0.01 0.05 0.21 0.14 0.10 0.06 0.06 0.07 0.16 0.12 0.09
0.07 0.05 0.05 0.10 0.09 0.06 0.07 0.03 0.03 0.05 0.04 0.00 0.01 0.00 0.00 0.01 0.05 0.25 0.08 0.00 0.01 0.00 0.00 0.00 0.00 0.00 0.00 0.00 0.00 0.00 0.00 0.00 0.00 0.00 0.00 0.00 0.00 0.00 0.00 0.00 0.01 0.00 0.01 0.01 0.00 0.00 0.00 0.00 0.00 0.00 0.01 0.00 0.00 0.00 0.02 0.18 0.64 0.56 0.41 0.08 0.00 0.00 0.00 0.00 0.02 0.27 0.17 0.04 0.03 0.03 0.05 0.05 0.05 0.03 0.10 0.25 0.35 0.34 0.11 0.05 0.05 0.03 0.02 0.22 0.25 0.09
0.26 0.16 0.23 0.12 0.10 0.05 0.07 0.13 0.10 0.12 0.37 0.00 0.02 0.00 0.00 0.05 0.22 0.04 0.00 0.00 0.01 0.02 0.00 0.00 0.00 0.00 0.00 0.00 0.00 0.00 0.00 0.00 0.00 0.00 0.00 0.00 0.00 0.01 0.01 0.00 0.00 0.00 0.00 0.00 0.00 0.00 0.00 0.00 0.02 0.17 0.28 0.25 0.28 0.36 0.52 0.58 0.48 0.38 0.40 0.26 0.27 0.31 0.20 0.11 0.10 0.14 0.10 0.06 0.06 0.05 0.03 0.02 0.08 0.14 0.20 0.35 0.14 0.30 0.15 0.09 0.09 0.03 0.25 0.37 0.27 0.08
0.10 0.17 0.15 0.08 0.05 0.31 0.28 0.25 0.25 0.11 0.02 0.01 0.01 0.09 0.00 0.00 0.00 0.00 0.00 0.02 0.01 0.01 0.00 0.00 0.00 0.00 0.02 0.00 0.00 0.00 0.00 0.00 0.00 0.00 0.00 0.00 0.02 0.00 0.00 0.02 0.01 0.02 0.02 0.03 0.10 0.11 0.00 0.12 0.37 0.42 0.40 0.39 0.41 0.39 0.44 0.38 0.28 0.38 0.34 0.25 0.32 0.18 0.10 0.10 0.06 0.06 0.16 0.18 0.12 0.04 0.02 0.05 0.12 0.14 0.20 0.19 0.31 0.25 0.29 0.22 0.21 0.24 0.56 0.32 0.11 0.24
0.10 0.13 0.19 0.45 0.20 0.10 0.32 0.23 0.16 0.07 0.03 0.02 0.01 0.04 0.01 0.00 0.00 0.00 0.00 0.01 0.00 0.04 0.00 0.01 0.00 0.01 0.01 0.00 0.04 0.01 0.01 0.01 0.00 0.00 0.00 0.00 0.00 0.01 0.02 0.02 0.04 0.04 0.09 0.25 0.24 0.19 0.28 0.34 0.37 0.30 0.29 0.35 0.36 0.27 0.23 0.18 0.10 0.03 0.01 0.04 0.07 0.04 0.01 0.04 0.05 0.11 0.12 0.07 0.03 0.03 0.13 0.11 0.15 0.31 0.18 0.25 0.33 0.33 0.07 0.25 0.44 0.42 0.27 0.32 0.35 0.27
0.16 0.06 0.12 0.19 0.27 0.04 0.11 0.04 0.37 0.32 0.16 0.11 0.02 0.01 0.00 0.00 0.00 0.00 0.00 0.00 0.01 0.01 0.01 0.01 0.02 0.02 0.02 0.04 0.02 0.00 0.05 0.05 0.05 0.03 0.01 0.04 0.03 0.08 0.04 0.06 0.04 0.10 0.18 0.26 0.36 0.33 0.41 0.55 0.56 0.35 0.28 0.21 0.15 0.22 0.17 0.17 0.01 0.02 0.02 0.00 0.01 0.02 0.03 0.02 0.04 0.02 0.03 0.03 0.02 0.06 0.17 0.18 0.21 0.19 0.35 0.43 0.20 0.26 0.24 0.34 0.23 0.14 0.21 0.29 0.10 0.21
0.16 0.04 0.03 0.09 0.26 0.16 0.79 0.04 0.14 0.19 0.21 0.08 0.10 0.01 0.00 0.00 0.02 0.01 0.00 0.00 0.01 0.00 0.00 0.01 0.03 0.02 0.02 0.05 0.03 0.02 0.02 0.01 0.02 0.07 0.07 0.03 0.05 0.04 0.02 0.03 0.05 0.10 0.10 0.21 0.24 0.29 0.44 0.67 0.40 0.12 0.17 0.33 0.24 0.27 0.18 0.14 0.06 0.02 0.02 0.00 0.03 0.04 0.01 0.04 0.02 0.03 0.02 0.03 0.10 0.16 0.13 0.23 0.22 0.24 0.15 0.18 0.34 0.23 0.08 0.04 0.11 0.14 0.16 0.22 0.31 0.48
0.47 0.09 0.12 0.11 0.23 0.15 0.65 0.29 0.36 0.22 0.23 0.23 0.18 0.08 0.07 0.05 0.02 0.02 0.01 0.00 0.00 0.00 0.00 0.03 0.07 0.09 0.02 0.04 0.03 0.16 0.13 0.15 0.35 0.32 0.55 0.56 0.64 0.26 0.36 0.31 0.49 0.51 0.60 0.57 0.69 0.64 0.60 0.57 0.27 0.36 0.29 0.25 0.30 0.34 0.23 0.22 0.18 0.25 0.22 0.09 0.01 0.00 0.04 0.01 0.04 0.06 0.09 0.03 0.05 0.06 0.10 0.10 0.07 0.07 0.08 0.05 0.03 0.02 0.08 0.12 0.23 0.15 0.21 0.27 0.51 0.36
0.17 0.03 0.64 0.20 0.26 0.21 0.63 0.49 0.58 0.20 0.27 0.29 0.19 0.19 0.14 0.06 0.03 0.04 0.02 0.01 0.00 0.04 0.10 0.09 0.01 0.05 0.23 0.17 0.14 0.20 0.17 0.12 0.20 0.33 0.48 0.54 0.48 0.73 0.79 1.01 1.33 0.85 1.04 1.33 1.45 1.10 0.80 0.79 0.71 0.68 0.75 0.51 0.26 0.31 0.36 0.45 0.54 0.51 0.52 0.59 1.03 0.96 1.04 0.87 0.58 0.44 0.44 0.40 0.12 0.13 0.11 0.09 0.08 0.06 0.04 0.04 0.06 0.01 0.02 0.05 0.14 0.07 0.19 0.09 0.09 0.16
0.22 0.26 0.29 0.17 0.26 0.20 0.32 0.76 0.43 0.33 0.55 0.23 0.15 0.22 0.17 0.13 0.24 0.08 0.05 0.06 0.05 0.02 0.01 0.01 0.01 0.01 0.00 0.00 0.03 0.02 0.10 0.33 0.41 0.31 0.49 0.30 0.46 0.40 0.50 0.53 0.72 0.71 0.61 0.51 0.56 0.56 0.49 0.47 0.40 0.25 0.22 0.41 0.56 0.39 0.38 0.36 0.54 0.34 0.26 0.30 0.19 0.18 0.19 0.10 0.11 0.09 0.05 0.04 0.03 0.03 0.06 0.13 0.08 0.08 0.07 0.05 0.14 0.11 0.01 0.04 0.02 0.00 0.04 0.05 0.09 0.06
0.39 0.25 0.11 0.33 0.48 0.79 0.32 0.40 0.27 0.27 0.27 0.18 0.07 0.09 0.20 0.34 0.37 0.29 0.12 0.10 0.08 0.05 0.05 0.05 0.01 0.00 0.00 0.01 0.01 0.01 0.02 0.05 0.07 0.19 0.85 0.79 0.46 0.76 0.89 0.97 0.29 0.30 0.50 0.33 0.33 0.24 0.23 0.21 0.21 0.39 0.39 0.36 0.52 0.72 0.58 0.33 0.19 0.19 0.04 0.08 0.17 0.20 0.02 0.01 0.02 0.04 0.02 0.04 0.02 0.02 0.10 0.24 0.19 0.10 0.20 0.04 0.08 0.30 0.09 0.11 0.01 0.02 0.01 0.00 0.00 0.00